Location: McCloud Nature Park
(39.8272°N, 86.6824°W)
Time: 18:46:55
(UTC-05:00)

Amateur Radio Satellites - All Passes

Search period start: 26 March 2015 18:16
Search period end: 27 March 2015 18:16
Location: McCloud Nature Park, 39.8272°N, 86.6824°W

Satellite Date Start Highest point End Downlink Frequencies (MHz)
Time Altitude Azimuth
RS-15 26 Mar 18:19:50 18:28:07 27° 105° (ESE) 18:36:54 29.354- 29.394
SO-50 26 Mar 18:39:49 18:42:24 15° 110° (ESE) 18:45:16 436.795
Cubesat XI-IV 26 Mar 18:45:02 18:50:16 51° 260° (W) 18:55:31 437.490
CUTE-I 26 Mar 18:45:50 18:51:04 51° 260° (W) 18:56:17 437.470
CUBESAT XI-V 26 Mar 18:47:13 18:51:29 36° 96° (E) 18:55:44 437.345
MOZHAYETS 4 26 Mar 18:47:14 18:50:31 19° 293° (WNW) 18:53:40
BEESAT 3 26 Mar 18:57:29 19:00:06 17° 43° (NE) 19:02:49 437.485
GONETS M04 26 Mar 19:00:46 19:08:09 34° 86° (E) 19:15:46
HO-68 26 Mar 19:16:17 19:21:33 24° 60° (ENE) 19:27:03 435.675
PRISM 26 Mar 19:21:09 19:25:21 68° 102° (ESE) 19:29:28 437.425
AUBIESAT-1 26 Mar 19:27:08 19:30:57 23° 298° (WNW) 19:34:39 437.475
BRITE-PL 26 Mar 19:29:01 19:32:42 23° 70° (ENE) 19:36:16 437.365/2234.400
SEEDS 26 Mar 19:34:52 19:35:13 10° 64° (ENE) 19:35:48 437.485
M-CUBED/EXP-1 PRIME 26 Mar 19:49:55 19:52:24 14° 302° (WNW) 19:54:41 437.505
BEESAT 2 26 Mar 19:53:37 19:57:37 45° 54° (NE) 20:01:33 435.950
STRAND 1 26 Mar 19:55:21 20:00:29 89° 286° (WNW) 20:05:35 437.568
COMPASS 1 26 Mar 19:59:48 20:02:21 16° 67° (ENE) 20:05:02 437.405
SO-50 26 Mar 20:17:57 20:22:30 58° 306° (NW) 20:27:15 436.795
CANX-2 26 Mar 20:18:14 20:22:12 41° 73° (ENE) 20:26:14 2200.000
CUBESAT XI-V 26 Mar 20:25:08 20:28:44 22° 292° (WNW) 20:32:13 437.345
RS-15 26 Mar 20:28:36 20:39:32 76° 305° (NW) 20:50:39 29.354- 29.394
GOMX 1 26 Mar 20:30:51 20:35:25 65° 75° (ENE) 20:39:44 467.674
CUTE 1.7 + AOD 2 26 Mar 20:32:29 20:36:36 55° 75° (ENE) 20:40:46 437.475
BEESAT 3 26 Mar 20:34:31 20:38:33 54° 242° (WSW) 20:42:29 437.485
DOVE 4 26 Mar 20:34:49 20:39:03 46° 74° (ENE) 20:43:09 437.250
CINEMA 3 26 Mar 20:38:06 20:41:32 25° 70° (ENE) 20:44:59 145.822/145.860
CUSAT 1 26 Mar 20:43:18 20:44:57 14° 96° (E) 20:46:35 437.405
AIST 2 26 Mar 20:47:11 20:51:24 58° 56° (NE) 20:55:32 435.215
DX 1 26 Mar 20:49:56 20:50:53 11° 63° (ENE) 20:52:05 434.975-435.025
GONETS M04 26 Mar 20:56:19 21:04:44 51° 285° (WNW) 21:13:09
PRISM 26 Mar 20:59:19 21:00:19 11° 297° (WNW) 21:01:05 437.425
HO-68 26 Mar 21:01:35 21:08:43 69° 257° (WSW) 21:15:54 435.675
SEEDS 26 Mar 21:06:20 21:10:30 71° 259° (W) 21:14:44 437.485
BRITE-PL 26 Mar 21:06:39 21:11:07 34° 263° (W) 21:15:15 437.365/2234.400
DELFI C3 26 Mar 21:08:17 21:11:45 28° 71° (ENE) 21:15:19 145.870
AAUSAT CUBESAT 2 26 Mar 21:08:54 21:13:03 86° 77° (ENE) 21:17:16 437.432
CUBEBUG 2 26 Mar 21:10:34 21:14:11 30° 71° (ENE) 21:17:51 437.445
Oscar 11 26 Mar 21:11:12 21:15:15 42° 72° (ENE) 21:19:21 145.826/435.025
UWE-3 26 Mar 21:12:17 21:15:43 26° 70° (ENE) 21:19:13 435.000/436.395/437.385
DANDE 26 Mar 21:12:27 21:15:26 28° 98° (E) 21:17:59 436.750
FUNcube-1 26 Mar 21:16:26 21:19:40 23° 70° (ENE) 21:22:59 145.935
AISAT 26 Mar 21:21:12 21:21:37 10° 63° (ENE) 21:22:19 437.250
ZACube-1 26 Mar 21:27:38 21:31:17 31° 71° (ENE) 21:34:59 437.345
BEESAT 2 26 Mar 21:32:52 21:35:26 16° 249° (WSW) 21:37:49 435.950
COMPASS 1 26 Mar 21:33:48 21:37:45 41° 262° (W) 21:41:44 437.405
STRAND 1 26 Mar 21:37:26 21:39:00 11° 300° (WNW) 21:40:18 437.568
CANX-2 26 Mar 21:55:45 21:58:24 16° 269° (W) 22:00:53 2200.000
SO-50 26 Mar 22:03:11 22:04:11 10° 327° (NNW) 22:05:01 436.795
CUTE 1.7 + AOD 2 26 Mar 22:11:18 22:12:58 12° 272° (W) 22:14:23 437.475
GOMX 1 26 Mar 22:12:44 22:14:01 11° 271° (W) 22:14:58 467.674
DOVE 4 26 Mar 22:14:39 22:17:07 14° 269° (W) 22:19:22 437.250
CINEMA 3 26 Mar 22:15:11 22:18:44 25° 265° (W) 22:22:10 145.822/145.860
UKube-1 26 Mar 22:16:08 22:20:29 90° 334° (NNW) 22:24:51 .
DX 1 26 Mar 22:22:15 22:26:37 73° 258° (WSW) 22:31:00 434.975-435.025
CUSAT 1 26 Mar 22:26:08 22:27:42 13° 285° (WNW) 22:29:04 437.405
AIST 2 26 Mar 22:27:37 22:29:33 13° 251° (WSW) 22:31:17 435.215
50 SAT 26 Mar 22:28:23 22:32:09 50° 74° (ENE) 22:35:58 437.505
HUMSAT D 26 Mar 22:42:26 22:46:31 70° 259° (WSW) 22:50:37 437.325/437.525
DELFI C3 26 Mar 22:43:50 22:46:59 21° 267° (W) 22:50:03 145.870
QB50P2 26 Mar 22:44:04 22:45:53 13° 90° (E) 22:47:56 145.880/145.840
RS-15 26 Mar 22:45:17 22:54:14 27° 333° (NNW) 23:03:09 29.354- 29.394
CUBEBUG 2 26 Mar 22:47:50 22:50:59 20° 267° (W) 22:54:02 437.445
UWE-3 26 Mar 22:48:52 22:52:16 23° 266° (W) 22:55:35 435.000/436.395/437.385
Oscar 11 26 Mar 22:48:55 22:51:41 16° 269° (W) 22:54:17 145.826/435.025
UNISAT 6 26 Mar 22:49:39 22:53:42 31° 96° (E) 22:57:52 437.425
VELOX 1 26 Mar 22:49:53 22:54:21 89° 252° (WSW) 22:58:50 145.980
FUNcube-1 26 Mar 22:52:23 22:55:56 27° 265° (W) 22:59:27 145.935
AISAT 26 Mar 22:53:13 22:57:41 80° 257° (WSW) 23:02:08 437.250
CUBEBUG 1 26 Mar 22:59:07 23:03:23 50° 73° (ENE) 23:07:40 437.445
TIGRISAT 26 Mar 23:01:12 23:05:29 40° 98° (E) 23:09:51 435.000
ZACube-1 26 Mar 23:04:40 23:07:46 20° 267° (W) 23:10:45 437.345
ISS 26 Mar 23:08:43 23:11:18 23° 134° (SE) 23:13:58 145.825
POPSAT HIP 1 26 Mar 23:12:11 23:15:43 26° 95° (E) 23:19:20 437.405
ESTCUBE 1 26 Mar 23:12:26 23:16:59 80° 75° (ENE) 23:21:33 437.505/2401.250
SPROUT 26 Mar 23:21:05 23:24:21 22° 69° (ENE) 23:27:43 437.525
TISAT 1 26 Mar 23:22:06 23:25:04 19° 68° (ENE) 23:28:09 437.305
NANOSAT C BR1 26 Mar 23:23:50 23:27:43 35° 97° (E) 23:31:37 145.865
POLYITAN 1 26 Mar 23:25:14 23:29:11 38° 98° (E) 23:33:10 437.675
BUGSAT 1 26 Mar 23:27:39 23:31:05 27° 96° (E) 23:34:32 437.445
ANTELSAT 26 Mar 23:29:41 23:34:16 86° 103° (ESE) 23:38:56 437.575/2403.000
QB50P1 27 Mar 00:04:11 00:08:25 75° 285° (WNW) 00:12:38 145.935-145.965
50 SAT 27 Mar 00:06:20 00:07:28 11° 271° (W) 00:08:24 437.505
DUCHIFAT 1 27 Mar 00:07:50 00:12:01 70° 285° (WNW) 00:16:12 145.980
PCSat 27 Mar 00:16:58 00:22:08 44° 55° (NE) 00:27:19 145.827
QB50P2 27 Mar 00:18:03 00:22:10 50° 286° (WNW) 00:26:16 145.880/145.840
SWISSCUBE 27 Mar 00:21:51 00:24:52 17° 65° (ENE) 00:28:03 437.505
BEESAT 27 Mar 00:25:23 00:28:22 17° 65° (ENE) 00:31:32 436.000
UNISAT 6 27 Mar 00:26:39 00:30:23 25° 291° (WNW) 00:34:05 437.425
CUBEBUG 1 27 Mar 00:37:40 00:40:06 14° 270° (W) 00:42:20 437.445
TIGRISAT 27 Mar 00:38:42 00:42:00 20° 292° (WNW) 00:45:13 435.000
ISS 27 Mar 00:44:31 00:47:36 38° 329° (NNW) 00:50:40 145.825
POPSAT HIP 1 27 Mar 00:48:05 00:51:34 25° 290° (WNW) 00:54:57 437.405
YUBILEINY 27 Mar 00:53:42 01:02:15 53° 76° (ENE) 01:10:47 435.215
SPROUT 27 Mar 00:56:28 01:00:19 31° 264° (W) 01:04:07 437.525
TISAT 1 27 Mar 00:56:47 01:00:40 34° 263° (W) 01:04:32 437.305
NANOSAT C BR1 27 Mar 01:00:21 01:03:22 19° 292° (WNW) 01:06:15 145.865
POLYITAN 1 27 Mar 01:01:57 01:04:52 18° 293° (WNW) 01:07:41 437.675
BUGSAT 1 27 Mar 01:03:19 01:06:28 22° 291° (WNW) 01:09:32 437.445
RS-15 27 Mar 01:04:37 01:11:59 19° 8° (N) 01:19:39 29.354- 29.394
ITUPSAT 1 27 Mar 01:08:35 01:13:08 44° 71° (ENE) 01:17:44 437.325
KKS-1 27 Mar 01:22:23 01:23:33 11° 63° (ENE) 01:24:57 437.445
ITAMSAT 1 27 Mar 01:47:05 01:47:54 10° 87° (E) 01:49:06 435.822/435.867
SWISSCUBE 27 Mar 01:57:41 02:02:22 52° 261° (W) 02:07:05 437.505
STARS 27 Mar 01:59:20 02:02:11 18° 67° (ENE) 02:05:11 437.465
PCSat 27 Mar 02:00:55 02:05:20 25° 252° (WSW) 02:09:37 145.827
BEESAT 27 Mar 02:01:11 02:05:51 52° 260° (W) 02:10:33 436.000
Gurwin Techsat 1B 27 Mar 02:17:02 02:20:36 19° 91° (E) 02:24:21 435.225
ISS 27 Mar 02:23:13 02:24:44 12° 349° (NNW) 02:26:11 145.825
Oscar 19 27 Mar 02:23:45 02:28:56 85° 100° (E) 02:34:09 437.125/150
ITUPSAT 1 27 Mar 02:47:50 02:51:17 19° 268° (W) 02:54:36 437.325
YUBILEINY 27 Mar 02:51:08 02:58:47 33° 274° (W) 03:06:09 435.215
KKS-1 27 Mar 02:55:14 02:59:40 73° 257° (WSW) 03:04:07 437.445
SO-50 27 Mar 03:10:41 03:13:47 17° 40° (NE) 03:17:02 436.795
RS-15 27 Mar 03:18:26 03:28:51 40° 40° (NE) 03:39:51 29.354- 29.394
ITAMSAT 1 27 Mar 03:22:59 03:28:12 84° 282° (WNW) 03:33:23 435.822/435.867
HORYU 2 27 Mar 03:23:54 03:26:49 17° 92° (E) 03:29:54 437.375
AIST 1 27 Mar 03:25:26 03:26:17 11° 85° (E) 03:27:25
STARS 27 Mar 03:34:13 03:38:23 41° 261° (W) 03:42:32 437.465
Gurwin Techsat 1B 27 Mar 03:55:47 04:00:57 52° 288° (WNW) 04:06:05 435.225
AO-7 27 Mar 03:57:58 04:04:53 30° 95° (E) 04:12:00 29.400- 29.500
ISS 27 Mar 04:01:04 04:02:14 11° 9° (N) 04:03:26 145.825
Oscar 19 27 Mar 04:05:32 04:07:40 12° 299° (WNW) 04:09:33 437.125/150
JAS-2 27 Mar 04:05:55 04:12:33 31° 91° (E) 04:18:54 435.910
MOZHAYETS 4 27 Mar 04:10:23 04:14:37 38° 72° (ENE) 04:18:55
AUBIESAT-1 27 Mar 04:39:35 04:43:18 43° 67° (ENE) 04:47:23 437.475
O/OREOS (USA 219) 27 Mar 04:46:36 04:51:12 81° 111° (ESE) 04:55:49 437.305
SO-50 27 Mar 04:50:02 04:55:00 81° 241° (WSW) 04:59:55 436.795
AIST 1 27 Mar 04:59:06 05:03:28 61° 280° (W) 05:07:51
HORYU 2 27 Mar 04:59:27 05:03:43 42° 288° (WNW) 05:07:58 437.375
M-CUBED/EXP-1 PRIME 27 Mar 05:01:28 05:05:20 89° 73° (ENE) 05:09:38 437.505
ITAMSAT 1 27 Mar 05:05:43 05:06:59 11° 300° (WNW) 05:07:57 435.822/435.867
GONETS M04 27 Mar 05:12:30 05:17:08 16° 58° (ENE) 05:22:21
RS-15 27 Mar 05:30:46 05:42:13 70° 244° (WSW) 05:54:06 29.354- 29.394
STRAND 1 27 Mar 05:34:03 05:36:51 15° 63° (ENE) 05:39:53 437.568
ISS 27 Mar 05:36:33 05:39:28 30° 28° (NNE) 05:42:22 145.825
MOZHAYETS 4 27 Mar 05:48:32 05:52:00 20° 268° (W) 05:55:24
CUBESAT XI-V 27 Mar 05:49:54 05:54:06 33° 71° (ENE) 05:58:20 437.345
AO-7 27 Mar 05:50:04 05:58:10 59° 293° (WNW) 06:06:14 29.400- 29.500
JAS-2 27 Mar 05:50:21 05:57:56 54° 290° (WNW) 06:04:58 435.910
PRISM 27 Mar 06:10:38 06:14:37 45° 73° (ENE) 06:18:41 437.425
AUBIESAT-1 27 Mar 06:16:10 06:18:31 15° 266° (W) 06:20:48 437.475
VERMONT LUNAR 27 Mar 06:17:33 06:20:23 26° 153° (SSE) 06:23:16 437.305
O/OREOS (USA 219) 27 Mar 06:29:34 06:31:20 12° 310° (NW) 06:32:53 437.305
PHONESAT 2.4 27 Mar 06:36:38 06:39:02 18° 149° (SSE) 06:41:30 2401.200-2431.200
Cubesat XI-IV 27 Mar 07:02:57 07:08:16 69° 101° (E) 07:13:34 437.490
CUTE-I 27 Mar 07:03:33 07:08:53 69° 101° (ESE) 07:14:10 437.470
GONETS M04 27 Mar 07:06:54 07:15:46 79° 81° (E) 07:24:38
STRAND 1 27 Mar 07:10:26 07:15:34 68° 258° (WSW) 07:20:43 437.568
ISS 27 Mar 07:12:57 07:15:51 30° 225° (SW) 07:18:44 145.825
CUSAT 1 27 Mar 07:18:03 07:20:42 17° 75° (ENE) 07:24:00 437.405
CUBESAT XI-V 27 Mar 07:27:44 07:31:36 24° 267° (W) 07:35:23 437.345
JAS-2 27 Mar 07:39:14 07:41:23 11° 308° (NW) 07:42:59 435.910
AO-7 27 Mar 07:45:52 07:49:27 13° 312° (NW) 07:52:34 29.400- 29.500
RS-15 27 Mar 07:47:13 07:53:03 14° 260° (W) 07:57:50 29.354- 29.394
PRISM 27 Mar 07:47:59 07:50:25 14° 269° (W) 07:52:40 437.425
DANDE 27 Mar 07:50:50 07:54:03 25° 77° (ENE) 07:58:10 436.750
VERMONT LUNAR 27 Mar 07:54:32 07:57:53 84° 169° (S) 08:01:16 437.305
PHONESAT 2.4 27 Mar 08:13:32 08:17:01 64° 164° (SSE) 08:20:33 2401.200-2431.200
CUTE 1.7 + AOD 2 27 Mar 08:21:39 08:22:02 10° 88° (E) 08:22:44 437.475
HO-68 27 Mar 08:31:00 08:36:30 24° 92° (E) 08:42:14 435.675
GOMX 1 27 Mar 08:33:57 08:36:48 18° 93° (E) 08:39:53 467.674
DOVE 4 27 Mar 08:35:55 08:37:40 12° 90° (E) 08:39:40 437.250
Cubesat XI-IV 27 Mar 08:44:38 08:47:52 16° 298° (WNW) 08:50:52 437.490
CUTE-I 27 Mar 08:45:14 08:48:27 16° 298° (WNW) 08:51:26 437.470
SEEDS 27 Mar 08:52:20 08:55:29 20° 93° (E) 08:58:44 437.485
AAUSAT CUBESAT 2 27 Mar 08:54:18 08:56:36 15° 90° (E) 08:59:05 437.432
CUSAT 1 27 Mar 08:59:32 09:03:27 40° 262° (W) 09:08:32 437.405
GONETS M04 27 Mar 09:05:33 09:11:45 21° 279° (W) 09:17:29
BRITE-PL 27 Mar 09:11:22 09:15:33 75° 102° (ESE) 09:19:53 437.365/2234.400
COMPASS 1 27 Mar 09:18:10 09:21:59 32° 96° (E) 09:25:49 437.405
VERMONT LUNAR 27 Mar 09:32:18 09:35:41 81° 4° (N) 09:39:04 437.305
DANDE 27 Mar 09:34:05 09:37:18 23° 263° (W) 09:41:09 436.750
CANX-2 27 Mar 09:39:49 09:44:10 86° 284° (WNW) 09:48:29 2200.000
UNISAT 6 27 Mar 09:48:42 09:52:07 24° 69° (ENE) 09:55:39 437.425
PHONESAT 2.4 27 Mar 09:51:51 09:55:24 78° 360° (N) 09:58:58 2401.200-2431.200
CUTE 1.7 + AOD 2 27 Mar 09:54:12 09:58:29 65° 285° (WNW) 10:02:46 437.475
TIGRISAT 27 Mar 09:59:49 10:03:32 31° 71° (ENE) 10:07:21 435.000
POPSAT HIP 1 27 Mar 10:05:03 10:08:01 19° 68° (ENE) 10:11:05 437.405
UKube-1 27 Mar 10:05:52 10:08:26 16° 91° (E) 10:11:09 .
CINEMA 3 27 Mar 10:09:18 10:13:40 73° 101° (E) 10:18:15 145.822/145.860
GOMX 1 27 Mar 10:11:14 10:15:08 36° 287° (WNW) 10:19:08 467.674
DOVE 4 27 Mar 10:11:37 10:15:48 54° 285° (WNW) 10:20:10 437.250
DX 1 27 Mar 10:12:16 10:15:24 20° 93° (E) 10:18:38 434.975-435.025
NANOSAT C BR1 27 Mar 10:16:12 10:19:37 25° 70° (ENE) 10:23:08 145.865
HO-68 27 Mar 10:17:41 10:24:47 62° 290° (WNW) 10:31:49 435.675
BUGSAT 1 27 Mar 10:17:43 10:20:37 19° 68° (ENE) 10:23:37 437.445
POLYITAN 1 27 Mar 10:18:02 10:21:33 27° 70° (ENE) 10:25:09 437.675
DELFI C3 27 Mar 10:23:15 10:27:17 54° 100° (E) 10:31:19 145.870
BEESAT 3 27 Mar 10:27:21 10:30:58 32° 115° (ESE) 10:34:41 437.485
SEEDS 27 Mar 10:27:32 10:31:24 33° 289° (WNW) 10:35:12 437.485
HUMSAT D 27 Mar 10:28:05 10:31:09 20° 93° (E) 10:34:22 437.325/437.525
ANTELSAT 27 Mar 10:28:12 10:32:25 68° 75° (ENE) 10:36:43 437.575/2403.000
AAUSAT CUBESAT 2 27 Mar 10:28:29 10:32:32 44° 287° (WNW) 10:36:32 437.432
Oscar 11 27 Mar 10:35:00 10:39:24 84° 284° (WNW) 10:43:45 145.826/435.025
CUBEBUG 2 27 Mar 10:37:54 10:42:18 81° 102° (ESE) 10:46:50 437.445
UWE-3 27 Mar 10:38:08 10:42:30 67° 101° (E) 10:46:58 435.000/436.395/437.385
FUNcube-1 27 Mar 10:40:29 10:44:46 56° 100° (E) 10:49:10 145.935
VELOX 1 27 Mar 10:42:22 10:45:20 18° 92° (E) 10:48:27 145.980
AISAT 27 Mar 10:45:43 10:48:58 20° 93° (E) 10:52:18 437.250
AIST 2 27 Mar 10:46:14 10:48:37 15° 110° (ESE) 10:51:12 435.215
ZACube-1 27 Mar 10:52:20 10:56:43 78° 102° (ESE) 11:01:11 437.345
COMPASS 1 27 Mar 10:54:16 10:57:32 21° 291° (WNW) 11:00:40 437.405
QB50P1 27 Mar 10:56:03 11:00:16 73° 75° (ENE) 11:04:29 145.935-145.965
DUCHIFAT 1 27 Mar 10:59:21 11:03:34 78° 78° (ENE) 11:07:47 145.980
ESTCUBE 1 27 Mar 11:07:08 11:10:08 18° 91° (E) 11:13:15 437.505/2401.250
QB50P2 27 Mar 11:09:59 11:14:13 76° 258° (WSW) 11:18:27 145.880/145.840
VERMONT LUNAR 27 Mar 11:10:06 11:13:20 42° 202° (SSW) 11:16:33 437.305
BEESAT 2 27 Mar 11:24:41 11:28:48 70° 303° (WNW) 11:32:58 435.950
UNISAT 6 27 Mar 11:25:12 11:28:52 27° 265° (W) 11:32:29 437.425
PHONESAT 2.4 27 Mar 11:30:15 11:33:46 63° 197° (SSW) 11:37:18 2401.200-2431.200
TIGRISAT 27 Mar 11:37:08 11:40:24 21° 267° (W) 11:43:35 435.000
POPSAT HIP 1 27 Mar 11:39:49 11:43:43 34° 263° (W) 11:47:34 437.405
UKube-1 27 Mar 11:40:44 11:44:51 43° 288° (WNW) 11:48:56 .
50 SAT 27 Mar 11:41:36 11:45:39 86° 283° (WNW) 11:49:42 437.505
DX 1 27 Mar 11:47:50 11:51:47 34° 289° (WNW) 11:55:41 434.975-435.025
CINEMA 3 27 Mar 11:49:17 11:50:27 11° 295° (WNW) 11:51:22 145.822/145.860
NANOSAT C BR1 27 Mar 11:51:52 11:55:27 26° 265° (W) 11:58:57 145.865
BUGSAT 1 27 Mar 11:52:04 11:55:55 34° 263° (W) 11:59:42 437.445
POLYITAN 1 27 Mar 11:54:00 11:57:29 24° 266° (W) 12:00:53 437.675
DELFI C3 27 Mar 12:00:14 12:02:03 12° 294° (WNW) 12:03:40 145.870
HUMSAT D 27 Mar 12:03:12 12:07:02 33° 288° (WNW) 12:10:51 437.325/437.525
Oscar 19 27 Mar 12:03:43 12:06:11 14° 62° (ENE) 12:08:55 437.125/150
BEESAT 3 27 Mar 12:05:40 12:09:05 24° 312° (NW) 12:12:29 437.485
HO-68 27 Mar 12:08:43 12:11:16 12° 308° (NW) 12:13:23 435.675
UWE-3 27 Mar 12:16:54 12:18:36 12° 295° (WNW) 12:20:04 435.000/436.395/437.385
VELOX 1 27 Mar 12:18:00 12:22:07 38° 288° (WNW) 12:26:10 145.980
FUNcube-1 27 Mar 12:18:28 12:20:45 14° 294° (WNW) 12:22:51 145.935
AISAT 27 Mar 12:21:40 12:25:41 34° 289° (WNW) 12:29:38 437.250
AIST 2 27 Mar 12:22:42 12:26:51 50° 305° (NW) 12:31:03 435.215
CUBEBUG 1 27 Mar 12:24:57 12:29:17 70° 285° (WNW) 12:33:34 437.445
ZACube-1 27 Mar 12:32:19 12:32:35 10° 296° (WNW) 12:32:35 437.345
TISAT 1 27 Mar 12:42:01 12:45:53 36° 97° (E) 12:49:46 437.305
ESTCUBE 1 27 Mar 12:42:58 12:47:15 41° 288° (WNW) 12:51:27 437.505/2401.250
SPROUT 27 Mar 12:43:27 12:47:34 46° 99° (E) 12:51:42 437.525
ITAMSAT 1 27 Mar 13:03:06 13:06:21 17° 64° (ENE) 13:09:47 435.822/435.867
PHONESAT 2.4 27 Mar 13:09:19 13:11:46 17° 211° (SSW) 13:14:11 2401.200-2431.200
ITUPSAT 1 27 Mar 13:12:10 13:13:49 12° 88° (E) 13:15:46 437.325
O/OREOS (USA 219) 27 Mar 13:19:38 13:22:07 15° 53° (NE) 13:24:46 437.305
Gurwin Techsat 1B 27 Mar 13:37:11 13:41:36 28° 68° (ENE) 13:46:09 435.225
Oscar 19 27 Mar 13:39:54 13:45:00 73° 258° (WSW) 13:50:09 437.125/150
YUBILEINY 27 Mar 13:53:08 14:01:43 62° 92° (E) 14:10:25 435.215
SWISSCUBE 27 Mar 13:58:52 14:03:24 42° 98° (E) 14:07:55 437.505
BEESAT 27 Mar 14:02:15 14:06:47 42° 98° (E) 14:11:19 436.000
TISAT 1 27 Mar 14:18:30 14:21:27 18° 293° (WNW) 14:24:16 437.305
JAS-2 27 Mar 14:19:52 14:22:54 14° 54° (NE) 14:26:27 435.910
SPROUT 27 Mar 14:20:45 14:23:20 15° 294° (WNW) 14:25:47 437.525
HORYU 2 27 Mar 14:22:20 14:24:53 16° 65° (ENE) 14:27:36 437.375
ITAMSAT 1 27 Mar 14:40:16 14:45:26 60° 259° (W) 14:50:37 435.822/435.867
ITUPSAT 1 27 Mar 14:47:31 14:52:19 68° 285° (WNW) 14:57:03 437.325
KKS-1 27 Mar 14:47:48 14:51:16 23° 94° (E) 14:54:50 437.445
AO-7 27 Mar 14:56:07 15:03:34 40° 62° (ENE) 15:11:09 29.400- 29.500
O/OREOS (USA 219) 27 Mar 14:57:33 15:02:03 60° 252° (WSW) 15:06:29 437.305
PCSat 27 Mar 14:57:48 15:02:55 46° 113° (ESE) 15:08:08 145.827
AIST 1 27 Mar 15:07:31 15:11:16 29° 75° (ENE) 15:15:02
Gurwin Techsat 1B 27 Mar 15:16:36 15:21:29 36° 264° (W) 15:26:20 435.225
STARS 27 Mar 15:24:41 15:28:44 36° 97° (E) 15:32:50 437.465
SWISSCUBE 27 Mar 15:37:26 15:41:00 21° 294° (WNW) 15:44:26 437.505
BEESAT 27 Mar 15:40:48 15:44:23 21° 294° (WNW) 15:47:49 436.000
YUBILEINY 27 Mar 15:51:47 15:59:15 29° 293° (WNW) 16:06:30 435.215
HORYU 2 27 Mar 15:56:53 16:01:11 49° 260° (W) 16:05:31 437.375
JAS-2 27 Mar 15:59:55 16:06:35 69° 73° (ENE) 16:14:05 435.910
KKS-1 27 Mar 16:24:01 16:27:59 31° 290° (WNW) 16:31:53 437.445
PCSat 27 Mar 16:42:02 16:46:36 26° 311° (NW) 16:51:06 145.827
AIST 1 27 Mar 16:45:29 16:48:48 21° 271° (W) 16:51:58
JUGNU 27 Mar 16:47:19 16:47:48 10° 180° (S) 16:48:18 437.505
Cubesat XI-IV 27 Mar 16:47:34 16:50:06 14° 61° (ENE) 16:52:54 437.490
CUTE-I 27 Mar 16:48:04 16:50:35 14° 61° (ENE) 16:53:21 437.470
AO-7 27 Mar 16:48:21 16:56:17 47° 260° (W) 17:04:11 29.400- 29.500
STARS 27 Mar 17:01:44 17:05:01 20° 293° (WNW) 17:08:10 437.465
MOZHAYETS 4 27 Mar 17:42:58 17:47:39 81° 284° (WNW) 17:52:16
RS-15 27 Mar 17:46:02 17:52:31 19° 102° (ESE) 17:59:45 29.354- 29.394
JAS-2 27 Mar 17:47:18 17:52:27 22° 274° (W) 17:57:44 435.910
AUBIESAT-1 27 Mar 17:55:48 18:00:26 44° 103° (ESE) 18:04:58 437.475
